User: anonymous   Login
Location: Slanting_Bridge
(35.6330°N, 80.9830°W)
Time: 12:45:44
(UTC-04:00)
Language:

Hamsat - Orbit

View from above orbital plane
View from above orbital plane
View from above satellite
View from above satellite

Ground track
Ground track

The orbit data is extracted from the following two-line orbital elements,

1 28650U 05017B   17202.09859651 +.00000274 +00000-0 +34940-4 0  9996
2 28650 097.6533 175.2912 0024130 022.0752 338.1499 14.88693714661215
Epoch (UTC): 21 July 2017 02:21:58
Eccentricity: 0.0024130
inclination: 97.6533°
perigee height: 585 km
apogee height: 619 km
right ascension of ascending node: 175.2912°
argument of perigee: 22.0752°
revolutions per day: 14.88693714
mean anomaly at epoch: 338.1499°
orbit number at epoch: 66121

The dashed part of the orbit path shows where the satellite is in the earth's shadow,  

DLR